Vertical_Velocity
-0 -1 -2 -3 -6 -8 -9 -9 -8 -7 -6 -5 -5 -6 -6 -5 -1 0 0 0 4 5 4 3 4 3 2 1 0 0 -0 -0 -1 -2 -2 -2 -1 -1 -0 0 0 0 1 0 0 1 1 2 2 2 1 1 1 1 1 1 1 0 -0 0 -0 -0 -0 -1 -2 -2 -1 -2 -1
-4 -5 -6 -8 -10 -10 -9 -8 -6 -6 -5 -5 -4 -4 -0 13 27 31 29 25 22 16 10 4 2 1 0 -1 -1 -0 -0 0 0 0 0 0 -0 -0 -0 -0 0 0 0 -1 -1 -1 -1 -1 -1 -1 -1 -1 -0 -0 -1 -1 -0 0 0 1 1 1 1 1 0 0 0 -1 2
-0 -0 -3 -7 -4 1 5 7 5 2 1 2 1 2 9 29 44 47 42 34 27 21 15 9 2 -1 -3 -3 -3 -2 -2 -1 0 1 1 1 1 0 0 0 0 -0 -1 -1 -2 -2 -2 -2 -2 -2 -2 -2 -2 -2 -2 -2 -1 -0 1 2 1 2 4 5 4 3 2 2 4
9 10 6 2 11 20 27 27 20 12 7 6 3 2 7 20 33 37 34 26 22 17 13 9 7 4 2 0 1 2 4 6 4 2 0 0 0 0 1 1 0 -0 -1 -2 -2 -3 -3 -3 -3 -3 -3 -2 1 5 6 2 -1 -1 2 5 2 4 8 10 8 5 2 3 3
13 14 11 8 15 24 32 37 32 22 10 1 -1 -1 1 7 15 19 19 18 16 14 13 11 11 14 17 18 16 13 11 11 9 9 10 12 10 6 3 2 2 1 1 0 0 -0 -1 -0 2 4 8 14 15 13 8 3 0 3 7 12 9 10 13 14 11 7 3 2 1
11 10 8 6 9 14 20 28 26 19 8 -1 -1 4 10 17 19 21 21 21 18 15 13 13 17 24 30 32 29 24 18 14 15 17 18 19 17 15 14 13 13 12 12 11 9 8 7 9 14 17 20 24 23 18 10 2 4 8 13 16 14 14 14 15 12 7 3 2 5
2 0 -1 1 2 3 5 8 8 5 3 0 6 15 24 29 29 28 25 21 16 12 10 10 13 18 23 28 29 29 27 25 26 25 22 18 15 13 12 13 15 17 17 17 15 12 9 10 17 21 21 20 18 16 12 8 10 11 11 12 11 9 7 9 8 5 2 5 10
-3 -3 0 5 8 10 12 11 9 10 12 13 16 20 22 23 20 18 15 12 10 9 8 7 8 9 12 15 19 22 23 22 20 19 17 16 12 9 7 7 10 12 12 12 10 7 4 2 6 9 12 15 14 11 7 6 7 8 8 6 3 2 3 8 7 4 3 9 10
11 15 19 24 28 31 33 32 28 25 23 22 18 15 13 10 9 10 10 9 8 7 6 5 4 5 5 6 8 10 12 11 9 8 9 11 10 8 7 10 13 13 10 6 4 3 1 -1 -1 1 4 7 7 4 1 0 1 3 4 2 -1 -1 0 3 4 3 3 8 7
32 32 33 34 35 35 35 32 28 23 19 17 14 11 8 5 6 7 7 7 5 3 2 0 1 2 3 3 3 2 2 1 0 0 2 4 8 10 10 11 11 9 7 4 3 2 1 -1 -1 -1 1 2 2 1 0 -0 0 0 -0 -1 -1 -2 -1 -1 0 0 1 4 2
30 27 26 25 25 24 21 17 15 12 10 8 7 6 5 4 4 4 5 4 3 1 -1 -1 -1 -1 -1 -0 0 -1 -1 -2 -0 -0 -0 1 3 5 6 5 3 2 1 0 -0 -1 -1 -2 -2 -2 -1 -1 -0 -0 0 0 -0 -1 -1 -2 -2 -2 -2 -1 0 1 1 2 1
14 12 10 10 11 10 9 7 5 4 2 2 2 3 3 2 2 3 3 3 2 1 1 -1 -2 -3 -3 -2 -2 -2 -2 -2 -1 -1 -1 0 1 1 1 -0 -1 -2 -3 -3 -3 -3 -3 -3 -2 -2 -1 -0 1 1 2 2 2 1 -0 -1 -2 -2 -2 -1 1 2 2 2 2
3 2 1 1 1 2 2 2 1 -0 -1 -1 1 2 2 1 1 2 2 1 1 1 0 -0 -1 -1 -1 -1 -1 -1 -1 -2 -2 -2 -2 -2 -2 -2 -2 -2 -1 -2 -2 -3 -3 -3 -2 -2 -1 -1 -0 0 1 2 2 3 2 1 -0 -2 -3 -3 -3 -1 -0 1 1 2 1
0 -0 -0 -0 -0 -1 -1 -2 -2 -2 -1 0 1 2 2 2 1 1 -0 -1 -1 -1 -1 -1 -1 -0 -0 0 -0 -1 -2 -3 -3 -3 -3 -3 -3 -2 -2 -0 0 0 -0 -1 -0 0 0 0 1 2 2 2 2 2 2 2 2 1 -1 -3 -4 -4 -3 -2 -2 -1 0 1 0
0 0 0 -0 -1 -2 -3 -4 -4 -2 0 2 2 3 4 3 1 0 -1 -1 -2 -2 -2 -2 -2 -2 -1 -0 -1 -1 -3 -4 -4 -3 -3 -2 -2 -2 -1 1 1 0 -0 -1 1 3 5 5 5 5 4 3 2 2 2 2 2 0 -1 -3 -4 -4 -3 -2 -2 -1 -1 -0 1
-1 -1 -1 -2 -2 -3 -3 -3 -2 -1 0 2 3 4 4 2 0 -1 -1 -1 -1 -2 -3 -3 -4 -3 -3 -1 -1 -1 -2 -3 -4 -3 -3 -2 -2 -2 -1 0 1 0 -1 -2 -2 0 3 5 5 5 4 2 1 1 1 1 1 -1 -2 -4 -4 -4 -3 -2 -2 -2 -1 -0 1
-2 -2 -3 -3 -3 -3 -3 -2 -1 -1 -0 0 1 1 0 -1 -2 -2 -2 -2 -1 -2 -3 -4 -4 -5 -5 -4 -2 -1 -2 -3 -3 -3 -3 -3 -2 -2 -2 -1 -1 -1 -2 -3 -3 -3 -2 -0 1 2 2 1 1 0 0 0 -0 -1 -2 -3 -3 -3 -3 -2 -2 -2 -2 -2 -1
-2 -3 -3 -3 -3 -3 -3 -2 -2 -2 -2 -2 -2 -2 -2 -2 -3 -3 -3 -2 -2 -3 -4 -4 -5 -5 -5 -5 -3 -2 -2 -2 -3 -3 -3 -3 -2 -2 -2 -2 -3 -3 -3 -4 -4 -4 -3 -3 -2 -1 -1 -1 -1 -0 -0 -0 -1 -1 -0 -0 -0 -0 -1 -1 -2 -3 -3 -3 -3
-2 -2 -2 -2 -2 -2 -2 -2 -3 -3 -3 -4 -4 -4 -3 -3 -3 -3 -3 -4 -4 -4 -4 -5 -5 -5 -5 -4 -3 -3 -2 -2 -2 -2 -2 -2 -2 -2 -2 -3 -4 -4 -4 -4 -4 -4 -4 -3 -3 -2 -1 -1 -1 -1 -1 -1 -0 1 2 3 4 4 3 2 1 -0 -1 -1 -1
-2 -2 -2 -2 -2 -2 -3 -3 -4 -4 -4 -4 -4 -3 -3 -3 -3 -3 -4 -4 -4 -5 -5 -5 -5 -5 -4 -4 -3 -3 -3 -2 -2 -2 -1 -1 -2 -3 -3 -4 -4 -4 -4 -3 -3 -3 -3 -2 -2 -1 -1 -0 -0 -0 0 0 1 2 4 5 6 7 7 7 6 6 6 6 6
-3 -3 -2 -2 -2 -2 -3 -3 -3 -3 -3 -3 -3 -2 -2 -2 -3 -3 -3 -4 -4 -4 -5 -5 -5 -5 -5 -5 -4 -4 -4 -3 -3 -2 -2 -2 -4 -5 -5 -5 -5 -4 -3 -2 -2 -1 -1 -0 -0 -0 0 0 1 1 1 1 2 3 4 6 7 9 10 10 11 12 12 13 13
-3 -3 -2 -2 -3 -3 -3 -3 -3 -3 -3 -3 -2 -2 -2 -2 -2 -2 -3 -3 -3 -4 -4 -4 -4 -5 -5 -5 -5 -5 -4 -3 -3 -2 -2 -3 -4 -4 -5 -5 -4 -3 -3 -2 -2 -1 -1 -1 -0 -0 -0 0 1 1 2 2 2 3 3 4 6 8 10 11 13 14 15 15 14
-3 -3 -3 -3 -3 -3 -3 -3 -3 -3 -2 -2 -2 -2 -2 -2 -2 -2 -2 -2 -2 -2 -2 -3 -3 -4 -4 -4 -4 -3 -3 -2 -1 -1 -1 -1 -1 -2 -2 -2 -2 -2 -1 -1 -1 -2 -2 -2 -2 -1 -1 0 1 1 1 1 1 2 2 3 4 5 6 8 10 12 12 13 12
-2 -2 -2 -2 -2 -2 -2 -2 -1 -1 -1 -1 -1 -1 -1 -2 -2 -1 -1 -1 -1 -1 -1 -1 -2 -2 -2 -2 -2 -2 -1 -0 0 0 0 0 0 0 -0 -0 -0 0 0 1 1 0 -1 -1 -1 -1 -0 0 1 1 1 1 1 1 2 2 2 2 2 4 5 6 7 7 7
-2 -2 -2 -2 -2 -2 -1 -1 -1 -1 -1 -1 -1 -1 -1 -1 -1 -2 -1 -1 -1 -1 -1 -1 -1 -1 -1 -1 -1 -1 0 1 1 1 1 0 1 0 0 0 0 1 1 2 3 2 2 1 1 -0 -0 1 1 1 1 0 1 1 1 1 0 0 0 1 2 2 3 3 3
-3 -3 -3 -3 -2 -2 -2 -2 -1 -1 -1 -1 -1 -1 -1 -2 -2 -2 -2 -2 -2 -2 -1 -1 -1 -1 -0 -1 -1 -0 0 1 1 1 1 1 1 1 0 0 0 0 0 1 2 2 3 3 2 1 0 1 0 0 0 -0 -0 -0 -0 -1 -0 -0 -0 -1 -1 -0 -0 0 0
-3 -3 -3 -3 -3 -2 -2 -2 -2 -1 -1 -1 -1 -1 -2 -2 -2 -2 -2 -2 -2 -2 -2 -2 -1 -1 -1 -1 -0 -0 -0 0 1 1 1 1 1 1 0 1 1 1 0 -0 -0 0 1 1 1 1 1 1 -0 -0 -1 -1 -1 -1 -2 -2 -1 -1 -0 -1 -1 -2 -2 -2 -1
-3 -3 -2 -2 -2 -2 -2 -2 -2 -1 -1 -1 -1 -1 -1 -1 -1 -1 -2 -2 -2 -1 -1 -1 -1 -1 -1 -1 -0 -0 -0 -1 -0 -0 -0 0 0 0 0 1 1 1 1 1 -0 -1 -1 -1 -1 -1 -1 -2 -2 -3 -3 -2 -2 -3 -3 -3 -2 -2 -1 -1 -1 -1 -2 -3 -2
-2 -2 -1 -1 -1 -1 -1 -1 -1 -1 -1 -1 -0 -0 -0 -0 -0 -0 -0 -0 0 0 0 -0 0 0 0 0 0 0 -0 -1 -0 -0 0 -0 0 0 0 1 0 0 1 2 0 -0 -1 -2 -2 -2 -3 -3 -4 -4 -5 -4 -4 -3 -3 -3 -3 -3 -2 -2 -1 -1 -1 -1 -2
-1 -1 -1 -1 -1 -1 -1 -1 -1 -1 -0 -0 -0 0 0 0 0 1 1 1 1 1 1 2 2 2 1 1 1 1 0 -0 0 1 1 1 1 1 1 2 1 1 1 2 1 0 0 -0 -1 -2 -3 -3 -4 -4 -4 -4 -3 -3 -3 -4 -3 -3 -3 -2 -1 -1 -0 -0 0
-0 -0 -1 -1 -1 -1 -1 -1 -1 -1 -1 -1 -1 -0 -0 0 0 0 1 1 1 1 1 2 1 1 1 1 1 1 0 0 1 0 1 1 2 2 2 2 2 2 2 2 1 1 1 1 -0 -1 -2 -3 -4 -4 -4 -3 -2 -2 -2 -2 -3 -3 -3 -2 -2 -1 -0 0 0
2 1 1 0 -0 -0 -0 -0 -1 -1 -1 -1 -1 -1 -1 -1 -0 -0 0 1 1 1 1 0 0 0 0 0 -0 -1 -1 -0 -1 -1 -1 0 1 1 2 3 2 2 1 1 1 1 2 2 1 -0 -1 -3 -4 -4 -4 -3 -2 -1 -0 0 -0 -1 -2 -2 -1 -1 -0 0 0
3 3 3 2 2 1 1 1 1 1 1 0 0 0 -0 -1 -1 -0 -0 0 1 1 1 0 1 0 0 0 -0 -0 -0 -0 -1 -1 -1 -1 -1 0 1 2 1 1 1 1 1 1 2 2 2 1 -0 -2 -3 -4 -4 -3 -2 -1 1 2 1 1 0 -1 -1 -1 -0 0 0
3 3 3 3 3 3 3 3 3 3 3 3 2 2 2 2 1 1 0 0 1 1 1 1 1 1 1 1 1 1 0 0 0 -0 -1 -1 -1 0 0 1 1 1 1 1 1 2 2 2 2 2 1 -1 -2 -3 -3 -4 -3 -2 0 1 2 3 2 1 0 0 -0 -0 -0
-1 -0 0 0 1 2 2 2 3 3 3 3 3 3 3 4 4 3 3 3 3 3 3 2 2 2 2 2 2 2 2 1 1 0 -0 -0 0 0 1 1 1 1 1 1 0 2 2 2 2 2 1 0 -1 -1 -2 -2 -3 -2 -1 0 2 3 3 3 2 1 0 -0 -0
-5 -4 -5 -5 -4 -3 -3 -2 -1 -1 -0 0 0 1 2 2 2 3 3 4 4 4 3 2 3 3 3 2 2 2 2 2 1 1 0 -0 0 1 1 1 2 2 1 1 -0 1 2 2 2 2 1 0 -0 -0 -1 -1 -2 -2 -1 -0 0 2 3 4 3 2 1 1 0
-5 -6 -6 -6 -6 -6 -6 -5 -4 -4 -4 -4 -3 -2 -2 -1 -1 -1 -0 2 2 2 1 1 2 2 1 2 2 2 2 2 2 1 0 -0 0 0 0 2 3 3 2 1 -0 -0 0 1 1 1 0 -0 -1 -1 -0 -1 -2 -1 -1 -1 -0 1 2 3 2 2 2 2 1
-5 -5 -5 -5 -6 -6 -5 -5 -5 -4 -5 -5 -4 -4 -4 -3 -3 -3 -3 -1 -0 -1 -1 -0 -0 -1 -1 0 2 2 2 1 1 1 1 0 -0 -0 0 2 3 3 3 1 -1 -1 -1 -0 -0 -0 -1 -0 -1 -1 -0 -1 -1 -1 -0 -0 -0 0 1 1 1 2 2 2 2
-4 -4 -4 -4 -4 -4 -4 -4 -4 -4 -4 -4 -4 -4 -4 -3 -3 -4 -4 -2 -1 -1 -1 0 -0 -1 -2 -0 1 1 1 1 1 0 0 0 0 1 1 2 3 4 4 2 -0 -1 -1 -1 -1 -1 -1 -1 -1 -1 -0 -0 -1 -1 -0 1 1 1 1 1 1 0 0 1 1
-3 -2 -2 -3 -3 -3 -3 -3 -3 -3 -3 -3 -3 -3 -3 -3 -3 -3 -3 -2 -2 -1 -0 1 0 -0 -0 0 1 2 2 2 1 0 -0 -0 0 2 3 3 4 5 5 4 1 -1 -2 -2 -2 -2 -2 -2 -1 -1 -0 0 -0 -0 0 1 2 1 0 -0 0 -0 -1 -1 1
-2 -1 -1 -2 -2 -1 -1 -1 -2 -2 -2 -1 -2 -2 -2 -1 -1 -1 -1 -1 -1 -1 0 1 2 1 1 2 2 3 3 3 2 1 -0 -1 0 1 3 4 5 6 7 6 4 1 -1 -1 -1 -2 -2 -2 -2 -1 -1 0 1 1 1 2 2 1 0 -1 -1 -0 -0 -0 0
Height
5688 5689 5691 5692 5693 5695 5697 5697 5699 5700 5701 5702 5704 5707 5709 5712 5712 5709 5708 5708 5707 5706 5705 5707 5707 5707 5708 5708 5709 5709 5710 5711 5712 5712 5714 5715 5717 5717 5718 5719 5720 5721 5722 5723 5724 5725 5726 5727 5728 5729 5729 5731 5732 5732 5732 5733 5733 5734 5734 5735 5736 5737 5737 5738 5739 5740 5740 5741 5741
5685 5687 5689 5691 5693 5695 5696 5697 5698 5699 5700 5701 5703 5706 5710 5714 5715 5714 5712 5712 5709 5706 5703 5703 5703 5704 5704 5704 5705 5705 5705 5706 5707 5707 5709 5710 5712 5713 5714 5715 5717 5717 5718 5719 5720 5722 5722 5724 5725 5726 5726 5727 5728 5728 5728 5729 5729 5730 5730 5731 5732 5733 5734 5734 5735 5736 5736 5737 5738
5685 5686 5687 5689 5692 5694 5696 5697 5697 5698 5699 5700 5702 5705 5709 5712 5713 5713 5713 5711 5710 5707 5704 5702 5700 5700 5700 5700 5700 5701 5701 5701 5702 5703 5704 5706 5707 5709 5710 5712 5713 5714 5715 5716 5717 5718 5719 5721 5722 5722 5723 5724 5724 5724 5724 5724 5725 5726 5726 5727 5728 5730 5731 5731 5731 5731 5732 5733 5733
5686 5687 5687 5688 5690 5692 5693 5694 5696 5696 5697 5698 5699 5702 5705 5707 5708 5708 5707 5707 5706 5706 5705 5703 5702 5700 5699 5699 5699 5699 5700 5701 5701 5701 5702 5703 5704 5706 5707 5708 5709 5710 5712 5713 5714 5715 5716 5717 5719 5719 5720 5720 5720 5721 5720 5719 5721 5722 5722 5722 5724 5726 5727 5727 5726 5727 5728 5728 5728
5684 5685 5686 5687 5687 5688 5690 5692 5693 5694 5695 5695 5697 5698 5700 5702 5703 5702 5702 5701 5701 5701 5701 5702 5704 5703 5703 5702 5700 5699 5700 5700 5700 5701 5701 5702 5702 5703 5704 5705 5707 5707 5709 5710 5711 5712 5714 5715 5717 5719 5722 5722 5723 5721 5717 5716 5719 5721 5720 5720 5721 5723 5723 5722 5722 5722 5723 5724 5725
5682 5684 5685 5686 5687 5688 5689 5690 5691 5692 5693 5693 5695 5696 5697 5697 5698 5698 5697 5697 5697 5697 5699 5700 5702 5704 5705 5705 5703 5700 5698 5697 5698 5698 5700 5702 5702 5703 5704 5705 5706 5707 5709 5711 5711 5711 5713 5717 5718 5719 5719 5719 5719 5717 5716 5716 5718 5719 5719 5719 5718 5718 5719 5719 5717 5717 5719 5721 5722
5680 5682 5683 5684 5685 5687 5688 5689 5690 5691 5691 5691 5692 5693 5694 5694 5693 5693 5693 5692 5692 5693 5694 5696 5698 5700 5702 5703 5703 5702 5700 5699 5699 5698 5698 5699 5699 5699 5700 5702 5703 5705 5708 5710 5709 5708 5710 5714 5717 5716 5714 5714 5714 5715 5716 5716 5717 5716 5715 5714 5713 5712 5713 5714 5713 5713 5715 5717 5719
5677 5678 5680 5681 5682 5683 5684 5685 5686 5687 5687 5688 5689 5689 5689 5689 5688 5688 5688 5689 5690 5691 5692 5693 5694 5695 5696 5697 5698 5699 5700 5699 5699 5698 5698 5697 5697 5697 5698 5699 5700 5702 5703 5703 5703 5704 5704 5706 5707 5707 5709 5712 5712 5711 5710 5712 5714 5713 5711 5710 5709 5709 5710 5711 5710 5711 5712 5714 5714
5676 5677 5678 5678 5679 5680 5680 5680 5681 5681 5682 5682 5683 5683 5684 5684 5684 5685 5687 5687 5687 5688 5688 5689 5690 5691 5692 5692 5693 5694 5695 5695 5696 5696 5696 5696 5695 5696 5697 5697 5699 5700 5700 5700 5699 5699 5700 5701 5702 5702 5704 5705 5705 5705 5705 5706 5707 5708 5707 5707 5707 5706 5707 5708 5708 5708 5709 5710 5709
5673 5673 5674 5674 5674 5675 5675 5675 5675 5675 5676 5677 5677 5678 5679 5680 5681 5682 5683 5684 5683 5684 5685 5685 5686 5687 5688 5688 5689 5689 5690 5692 5692 5693 5694 5694 5694 5695 5695 5696 5697 5697 5697 5697 5697 5697 5697 5697 5698 5699 5700 5701 5701 5701 5700 5701 5702 5702 5702 5702 5702 5703 5703 5703 5704 5704 5705 5706 5706
5666 5666 5667 5667 5668 5669 5670 5670 5670 5671 5672 5672 5673 5674 5675 5676 5677 5678 5678 5679 5680 5681 5681 5682 5683 5684 5684 5685 5686 5686 5687 5687 5688 5689 5689 5690 5691 5692 5692 5693 5693 5693 5694 5694 5694 5694 5694 5694 5695 5695 5696 5696 5696 5696 5697 5697 5697 5697 5697 5698 5699 5699 5700 5700 5701 5701 5701 5701 5701
5661 5661 5662 5662 5664 5665 5666 5667 5667 5668 5669 5670 5671 5671 5672 5673 5674 5674 5675 5676 5677 5678 5678 5679 5680 5681 5681 5682 5682 5683 5683 5684 5685 5686 5687 5687 5687 5688 5688 5688 5689 5689 5690 5691 5691 5691 5692 5692 5692 5692 5693 5693 5693 5693 5693 5694 5694 5694 5694 5694 5695 5696 5696 5697 5697 5697 5697 5697 5697
5658 5659 5660 5661 5662 5663 5664 5664 5665 5666 5667 5668 5669 5670 5670 5670 5671 5672 5672 5673 5675 5676 5676 5677 5678 5679 5679 5679 5680 5680 5681 5681 5682 5682 5683 5683 5684 5684 5684 5684 5685 5685 5686 5687 5687 5688 5688 5689 5689 5689 5690 5690 5690 5690 5690 5690 5690 5691 5691 5691 5691 5692 5692 5693 5693 5693 5693 5694 5693
5656 5657 5658 5659 5660 5661 5662 5662 5663 5664 5666 5667 5667 5668 5669 5668 5669 5670 5671 5672 5672 5674 5674 5675 5676 5677 5677 5677 5678 5678 5678 5678 5679 5680 5680 5681 5681 5682 5682 5682 5682 5682 5682 5683 5684 5684 5685 5685 5685 5686 5686 5686 5687 5687 5687 5687 5687 5687 5688 5688 5688 5688 5688 5689 5689 5689 5690 5690 5690
5654 5655 5656 5657 5657 5658 5660 5661 5662 5662 5663 5664 5665 5665 5666 5667 5667 5668 5669 5670 5671 5672 5672 5673 5674 5674 5675 5675 5676 5676 5676 5676 5677 5677 5678 5678 5678 5678 5678 5678 5679 5679 5679 5679 5680 5681 5681 5681 5682 5682 5682 5682 5682 5683 5683 5683 5683 5684 5684 5684 5684 5684 5684 5685 5685 5685 5686 5686 5686
5652 5653 5654 5654 5655 5656 5657 5658 5659 5660 5661 5661 5662 5663 5664 5665 5666 5667 5668 5669 5669 5670 5670 5671 5672 5672 5672 5673 5673 5673 5673 5673 5674 5674 5674 5675 5675 5675 5675 5675 5675 5675 5676 5676 5676 5677 5677 5677 5678 5678 5678 5678 5678 5679 5679 5679 5679 5680 5680 5680 5681 5681 5680 5681 5681 5681 5681 5682 5682
5651 5651 5652 5653 5653 5654 5655 5656 5657 5658 5658 5659 5660 5661 5662 5663 5664 5665 5666 5666 5667 5667 5668 5668 5669 5669 5670 5671 5671 5671 5671 5671 5671 5671 5671 5671 5671 5671 5671 5671 5671 5671 5672 5672 5672 5673 5673 5673 5674 5674 5674 5674 5674 5675 5675 5675 5675 5676 5676 5676 5676 5677 5677 5677 5677 5677 5677 5677 5678
5650 5650 5651 5651 5652 5652 5653 5654 5655 5656 5657 5657 5658 5659 5660 5661 5662 5662 5663 5663 5664 5665 5665 5665 5666 5666 5667 5667 5667 5668 5668 5668 5668 5668 5668 5668 5667 5667 5667 5667 5667 5667 5668 5668 5669 5669 5669 5670 5670 5670 5670 5670 5671 5671 5671 5671 5671 5672 5672 5672 5672 5672 5672 5673 5673 5674 5674 5674 5674
5648 5649 5649 5650 5650 5651 5652 5652 5653 5654 5654 5655 5656 5657 5657 5658 5659 5659 5660 5660 5661 5662 5662 5662 5662 5663 5663 5663 5663 5664 5664 5665 5665 5665 5665 5664 5664 5664 5664 5664 5664 5664 5665 5665 5665 5665 5666 5666 5666 5666 5667 5667 5667 5667 5667 5667 5667 5667 5667 5668 5668 5668 5668 5669 5669 5669 5670 5671 5671
5647 5647 5648 5648 5649 5650 5650 5651 5651 5652 5652 5653 5653 5654 5655 5655 5656 5656 5657 5657 5657 5658 5658 5659 5659 5659 5660 5660 5660 5660 5660 5661 5661 5661 5661 5661 5661 5661 5661 5661 5661 5661 5662 5662 5662 5662 5662 5662 5663 5663 5663 5663 5663 5663 5663 5663 5663 5664 5664 5664 5664 5664 5665 5665 5665 5665 5666 5666 5666
5645 5646 5646 5647 5647 5648 5648 5649 5649 5649 5650 5650 5651 5651 5652 5652 5652 5653 5653 5653 5654 5654 5655 5655 5655 5656 5656 5656 5656 5657 5657 5657 5657 5657 5657 5658 5658 5658 5657 5657 5657 5657 5658 5658 5658 5658 5659 5659 5659 5659 5659 5660 5660 5660 5660 5660 5660 5660 5660 5661 5661 5661 5661 5661 5662 5662 5662 5662 5662
5644 5644 5644 5645 5645 5645 5646 5646 5646 5647 5647 5647 5648 5648 5648 5649 5649 5649 5650 5650 5650 5651 5651 5651 5651 5652 5652 5652 5652 5652 5652 5652 5653 5653 5653 5654 5654 5655 5655 5654 5654 5654 5654 5654 5655 5655 5655 5655 5655 5656 5656 5656 5656 5656 5657 5657 5657 5657 5657 5657 5657 5657 5658 5658 5658 5658 5658 5658 5658
5642 5642 5642 5642 5642 5643 5643 5643 5643 5644 5644 5644 5645 5645 5646 5646 5646 5646 5647 5647 5647 5647 5647 5647 5647 5647 5648 5648 5648 5648 5648 5648 5649 5649 5649 5649 5649 5650 5650 5650 5650 5650 5650 5650 5651 5652 5652 5652 5652 5652 5652 5652 5652 5652 5652 5653 5653 5653 5654 5654 5654 5654 5654 5654 5654 5655 5655 5655 5655
5640 5640 5640 5640 5640 5640 5640 5640 5641 5641 5641 5641 5642 5642 5642 5642 5643 5643 5643 5643 5643 5643 5643 5643 5643 5644 5644 5644 5644 5644 5644 5644 5644 5644 5645 5645 5645 5645 5645 5645 5646 5646 5646 5646 5647 5647 5647 5647 5647 5647 5648 5648 5648 5648 5648 5649 5649 5650 5650 5650 5650 5650 5650 5650 5650 5650 5650 5651 5650
5637 5637 5637 5637 5637 5637 5637 5637 5637 5637 5637 5637 5637 5638 5638 5638 5639 5639 5639 5639 5640 5640 5640 5640 5640 5640 5640 5640 5640 5640 5640 5640 5640 5641 5641 5641 5641 5641 5641 5641 5642 5642 5642 5642 5642 5642 5642 5642 5642 5643 5643 5643 5644 5644 5644 5645 5645 5646 5646 5646 5646 5646 5646 5646 5646 5646 5646 5646 5646
5634 5634 5635 5635 5635 5635 5634 5634 5634 5634 5634 5634 5634 5634 5634 5634 5634 5635 5635 5635 5635 5635 5635 5636 5636 5636 5636 5636 5636 5636 5636 5636 5637 5637 5637 5637 5637 5637 5637 5637 5637 5637 5637 5637 5638 5638 5638 5638 5638 5638 5639 5639 5639 5640 5640 5641 5641 5642 5642 5642 5642 5642 5642 5642 5642 5642 5642 5642 5642
5631 5631 5631 5631 5632 5631 5631 5631 5631 5631 5631 5631 5630 5630 5630 5630 5630 5631 5631 5631 5631 5631 5631 5631 5631 5632 5632 5632 5632 5632 5632 5632 5632 5632 5632 5632 5632 5632 5632 5632 5632 5632 5632 5633 5633 5633 5633 5633 5633 5633 5634 5634 5634 5635 5636 5636 5637 5637 5637 5638 5638 5638 5638 5638 5638 5638 5638 5638 5638
5628 5628 5628 5628 5628 5628 5628 5628 5628 5628 5627 5627 5627 5627 5627 5627 5627 5627 5627 5627 5627 5627 5627 5627 5627 5627 5627 5627 5627 5627 5628 5628 5628 5628 5628 5628 5628 5628 5628 5628 5628 5628 5627 5627 5627 5628 5628 5628 5628 5628 5628 5629 5629 5630 5630 5631 5631 5632 5632 5633 5633 5633 5634 5634 5634 5634 5634 5634 5634
5625 5625 5625 5625 5625 5625 5625 5625 5625 5625 5625 5625 5624 5624 5624 5624 5624 5624 5624 5623 5623 5623 5623 5623 5623 5623 5623 5623 5623 5623 5623 5623 5623 5623 5624 5624 5624 5623 5623 5623 5623 5623 5622 5622 5622 5622 5622 5622 5623 5623 5623 5623 5624 5624 5625 5625 5626 5626 5627 5627 5628 5628 5628 5629 5629 5629 5629 5629 5629
5622 5622 5622 5622 5622 5622 5622 5622 5622 5622 5622 5622 5622 5621 5621 5621 5621 5621 5621 5620 5620 5620 5620 5620 5620 5620 5619 5619 5619 5619 5619 5619 5619 5619 5619 5619 5619 5619 5618 5618 5618 5618 5617 5617 5617 5617 5617 5617 5617 5617 5617 5617 5617 5618 5619 5620 5620 5621 5621 5622 5622 5622 5623 5623 5623 5624 5624 5624 5624
5620 5620 5620 5620 5620 5619 5619 5619 5619 5619 5618 5618 5618 5618 5618 5618 5617 5617 5617 5617 5617 5616 5616 5616 5616 5616 5616 5615 5615 5615 5615 5615 5615 5615 5615 5615 5615 5614 5614 5614 5613 5613 5612 5612 5612 5612 5612 5612 5611 5611 5611 5611 5612 5612 5613 5613 5614 5615 5615 5616 5616 5616 5617 5617 5617 5618 5618 5618 5619
5618 5617 5617 5617 5617 5617 5616 5616 5616 5615 5615 5615 5615 5614 5614 5614 5614 5613 5613 5613 5613 5612 5612 5612 5612 5612 5611 5611 5611 5611 5611 5610 5610 5610 5610 5610 5610 5610 5609 5609 5608 5608 5607 5607 5607 5607 5607 5606 5606 5606 5606 5606 5606 5606 5607 5607 5608 5609 5609 5610 5610 5611 5611 5611 5612 5612 5612 5613 5613
5615 5614 5614 5614 5614 5613 5613 5612 5612 5612 5612 5611 5611 5611 5610 5610 5609 5609 5609 5608 5608 5608 5607 5607 5607 5607 5606 5606 5606 5606 5605 5605 5605 5604 5604 5604 5604 5604 5604 5604 5603 5603 5602 5602 5602 5602 5601 5601 5601 5600 5600 5600 5600 5601 5601 5602 5602 5603 5604 5604 5605 5605 5605 5605 5606 5606 5607 5607 5608
5612 5611 5611 5610 5610 5609 5609 5608 5608 5607 5607 5607 5607 5606 5606 5605 5605 5604 5604 5603 5603 5602 5602 5602 5601 5601 5601 5600 5600 5600 5599 5599 5599 5599 5598 5598 5598 5598 5598 5598 5597 5597 5597 5597 5596 5596 5596 5596 5595 5595 5595 5595 5595 5595 5596 5596 5597 5597 5598 5598 5599 5599 5599 5600 5600 5601 5601 5602 5602
5610 5609 5609 5608 5607 5607 5606 5605 5604 5604 5603 5603 5602 5602 5601 5600 5600 5599 5599 5598 5597 5597 5596 5596 5595 5595 5595 5594 5594 5594 5593 5593 5593 5592 5592 5592 5592 5592 5592 5592 5591 5591 5591 5590 5590 5590 5590 5590 5589 5589 5589 5589 5589 5590 5590 5590 5591 5592 5592 5592 5593 5593 5594 5594 5595 5595 5596 5596 5597
5610 5609 5608 5607 5606 5605 5604 5604 5603 5602 5601 5600 5599 5598 5598 5597 5596 5595 5595 5594 5593 5592 5592 5591 5591 5590 5589 5589 5588 5588 5587 5587 5587 5586 5586 5586 5586 5586 5586 5586 5585 5585 5584 5584 5583 5583 5583 5583 5583 5583 5583 5583 5583 5584 5584 5585 5585 5586 5586 5587 5587 5587 5588 5588 5589 5589 5590 5591 5591
5609 5608 5607 5607 5606 5605 5603 5602 5602 5601 5600 5598 5597 5597 5596 5595 5594 5593 5592 5591 5590 5589 5589 5588 5587 5586 5586 5585 5584 5584 5583 5582 5582 5581 5581 5580 5580 5580 5579 5580 5579 5579 5578 5578 5577 5577 5577 5577 5577 5577 5577 5577 5577 5578 5578 5579 5579 5580 5580 5581 5582 5582 5582 5582 5583 5583 5584 5585 5586
5607 5607 5606 5605 5604 5603 5602 5601 5600 5599 5598 5597 5596 5595 5593 5592 5591 5590 5589 5588 5587 5587 5586 5585 5584 5583 5582 5581 5580 5580 5579 5578 5577 5576 5576 5575 5575 5574 5574 5574 5574 5573 5573 5572 5572 5571 5571 5571 5571 5571 5571 5571 5572 5572 5572 5573 5573 5574 5574 5575 5575 5576 5576 5577 5577 5577 5578 5579 5580
5605 5604 5603 5603 5602 5601 5600 5598 5597 5596 5595 5594 5593 5592 5591 5590 5588 5587 5586 5585 5584 5583 5582 5582 5580 5579 5578 5577 5576 5575 5575 5573 5572 5572 5571 5571 5570 5570 5569 5569 5569 5568 5568 5567 5566 5566 5565 5565 5565 5565 5565 5565 5566 5566 5566 5567 5567 5568 5568 5569 5570 5570 5570 5571 5571 5572 5572 5573 5574
5603 5602 5601 5600 5599 5598 5597 5596 5595 5593 5592 5591 5590 5589 5587 5586 5585 5584 5582 5581 5580 5579 5578 5577 5576 5575 5574 5573 5572 5571 5570 5569 5568 5567 5566 5566 5565 5565 5564 5564 5564 5563 5563 5562 5561 5560 5560 5559 5559 5559 5559 5559 5559 5560 5561 5561 5562 5562 5562 5563 5564 5564 5565 5565 5566 5566 5567 5567 5568
5600 5599 5598 5597 5596 5595 5593 5592 5591 5590 5588 5587 5586 5585 5583 5582 5581 5579 5578 5577 5576 5575 5574 5573 5572 5570 5569 5568 5567 5566 5565 5564 5563 5562 5561 5560 5559 5559 5559 5558 5558 5558 5557 5557 5556 5555 5554 5554 5553 5553 5553 5553 5553 5554 5555 5555 5556 5556 5557 5558 5558 5559 5559 5559 5560 5561 5561 5562 5562